Indianapolis, IN

11:22 PM EDT on March 26, 2017 (GMT -0400)
Indianapolis Terry

Weather History for KTYQ - February, 2012

Change the Weather History Date:

Wednesday, February 1, 2012

  Actual Average (KEYE) Record (KEYE)
Temperature  
Mean Temperature 47 °F -  
Max Temperature 54 °F 36 °F 57 °F (2012)
Min Temperature 40 °F 21 °F 5 °F (2013)
Degree Days  
Heating Degree Days 18    
Moisture  
Dew Point 43 °F    
Average Humidity 83    
Maximum Humidity 94    
Minimum Humidity 60    
Precipitation  
Precipitation 0.01 in - - ()
Sea Level Pressure  
Sea Level Pressure 30.05 in    
Wind  
Wind Speed 9 mph (WNW)    
Max Wind Speed 17 mph    
Max Gust Speed 26 mph    
Visibility 9 miles    
Events Rain    
Averages and records for this station are not official NWS values.
T = Trace of Precipitation, MM = Missing Value Source: NWS Daily Summary

Daily Weather History Graph

Daily Weather History Graph

Search for Another Location

Airport or City:

Trip Planner

Search our weather history database for the weather conditions in past years. The results will help you decide how hot, cold, wet, or windy it might be!

Date:

Astronomy

Feb. 01, 2012 Rise Set
Actual Time 7:54 AM EST 6:03 PM EST
Civil Twilight 7:25 AM EST 6:32 PM EST
Nautical Twilight 6:52 AM EST 7:04 PM EST
Astronomical Twilight 6:21 AM EST 7:36 PM EST
Moon 12:31 PM EST (2/1) 2:39 AM EST (2/1)
Length of Visible Light 11h 06m
Length of Day
10h 09m
Waxing Gibbous, 64% of the Moon is Illuminated
Feb 1
Waxing Gibbous
Feb 7
Full
Feb 14
Last Quarter
Feb 21
New
Feb 29
First Quarter

Hourly Weather History & Observations

Time (EST) Temp. Windchill Dew Point Humidity Pressure Visibility Wind Dir Wind Speed Gust Speed Precip Events Conditions
12:15 AM 54.7 °F - 51.1 °F 88% 29.94 in 10.0 mi SW 17.3 mph 23.0 mph N/A   Overcast
12:35 AM 54.7 °F - 51.3 °F 88% 29.95 in 10.0 mi SW 16.1 mph - N/A   Overcast
12:55 AM 54.5 °F - 51.8 °F 91% 29.95 in 7.0 mi SW 17.3 mph 26.5 mph 0.01 in Rain Rain
1:35 AM 54.1 °F - 51.8 °F 92% 29.95 in 7.0 mi SW 16.1 mph 19.6 mph N/A   Drizzle
1:55 AM 53.8 °F - 51.8 °F 93% 29.95 in 10.0 mi SW 11.5 mph - N/A   Overcast
2:15 AM 54.1 °F - 51.8 °F 92% 29.96 in 10.0 mi WSW 13.8 mph - N/A   Overcast
2:35 AM 54.1 °F - 51.8 °F 92% 29.97 in 10.0 mi WSW 12.7 mph 19.6 mph N/A   Overcast
2:55 AM 54.1 °F - 51.8 °F 92% 29.97 in 10.0 mi WSW 11.5 mph - N/A   Overcast
3:35 AM 54.5 °F - 52.0 °F 91% 29.98 in 10.0 mi West 10.4 mph - N/A   Overcast
3:55 AM 54.0 °F - 51.8 °F 92% 29.99 in 10.0 mi West 9.2 mph - N/A   Overcast
4:15 AM 53.8 °F - 51.4 °F 92% 29.99 in 10.0 mi West 10.4 mph - N/A   Overcast
4:35 AM 53.1 °F - 50.7 °F 92% 29.99 in 10.0 mi West 8.1 mph - N/A   Mostly Cloudy
4:55 AM 52.7 °F - 50.0 °F 91% 30.00 in 10.0 mi West 8.1 mph - N/A   Mostly Cloudy
5:15 AM 51.4 °F - 48.6 °F 90% 30.01 in 10.0 mi WNW 9.2 mph - N/A   Overcast
5:35 AM 49.5 °F - 46.4 °F 89% 30.02 in 7.0 mi West 5.8 mph - N/A   Scattered Clouds
5:55 AM 48.2 °F - 45.3 °F 90% 30.02 in 7.0 mi West 4.6 mph - N/A   Clear
6:15 AM 47.5 °F - 45.1 °F 92% 30.03 in 7.0 mi West 6.9 mph - N/A   Clear
6:35 AM 46.6 °F - 43.7 °F 90% 30.04 in 10.0 mi WNW 4.6 mph - N/A   Scattered Clouds
6:55 AM 45.0 °F 41.8 °F 42.8 °F 92% 30.04 in 7.0 mi West 5.8 mph - N/A   Scattered Clouds
7:15 AM 43.5 °F 41.9 °F 41.4 °F 92% 30.05 in 7.0 mi West 3.5 mph - N/A   Clear
7:35 AM 42.3 °F 39.4 °F 40.3 °F 93% 30.06 in 5.0 mi West 4.6 mph - N/A   Clear
7:55 AM 41.0 °F 39.0 °F 39.4 °F 94% 30.07 in 5.0 mi WNW 3.5 mph - N/A   Clear
8:15 AM 41.0 °F 38.0 °F 39.2 °F 93% 30.07 in 4.0 mi WNW 4.6 mph - N/A   Clear
8:35 AM 41.2 °F 38.2 °F 39.6 °F 94% 30.08 in 5.0 mi WNW 4.6 mph - N/A   Clear
8:55 AM 42.6 °F 40.9 °F 40.6 °F 93% 30.08 in 7.0 mi WNW 3.5 mph - N/A   Clear
9:15 AM 43.7 °F 41.1 °F 41.0 °F 90% 30.08 in 7.0 mi WNW 4.6 mph - N/A   Clear
9:35 AM 44.6 °F 43.1 °F 41.0 °F 87% 30.09 in 10.0 mi WNW 3.5 mph - N/A   Clear
9:55 AM 44.6 °F 43.1 °F 40.5 °F 85% 30.09 in 10.0 mi West 3.5 mph - N/A   Clear
10:15 AM 44.6 °F 43.1 °F 40.6 °F 86% 30.09 in 10.0 mi WNW 3.5 mph - N/A   Clear
10:35 AM 44.8 °F - 40.3 °F 84% 30.10 in 10.0 mi Calm Calm - N/A   Clear
10:55 AM 45.3 °F - 40.5 °F 83% 30.10 in 10.0 mi Calm Calm - N/A   Clear
11:15 AM 45.9 °F 44.6 °F 41.0 °F 83% 30.10 in 10.0 mi West 3.5 mph - N/A   Clear
11:35 AM 46.6 °F - 41.2 °F 81% 30.10 in 10.0 mi West 3.5 mph - N/A   Clear
11:55 AM 47.5 °F - 41.9 °F 81% 30.10 in 10.0 mi West 3.5 mph - N/A   Clear
12:15 PM 47.7 °F - 41.9 °F 80% 30.09 in 10.0 mi Calm Calm - N/A   Clear
12:35 PM 48.2 °F - 42.1 °F 79% 30.08 in 10.0 mi Calm Calm - N/A   Clear
12:55 PM 49.3 °F - 42.8 °F 78% 30.08 in 10.0 mi Calm Calm - N/A   Clear
1:15 PM 50.2 °F - 43.0 °F 76% 30.07 in 10.0 mi WNW 3.5 mph - N/A   Clear
1:35 PM 51.8 °F - 42.8 °F 71% 30.06 in 10.0 mi Calm Calm - N/A   Clear
1:55 PM 52.3 °F - 43.0 °F 70% 30.06 in 10.0 mi WNW 4.6 mph - N/A   Clear
2:15 PM 53.2 °F - 42.1 °F 66% 30.06 in 10.0 mi NW 3.5 mph - N/A   Clear
2:35 PM 54.0 °F - 41.2 °F 62% 30.05 in 10.0 mi Calm Calm - N/A   Clear
2:55 PM 54.0 °F - 40.3 °F 60% 30.06 in 10.0 mi NW 4.6 mph - N/A   Clear
3:15 PM 54.0 °F - 41.4 °F 62% 30.06 in 10.0 mi NW 5.8 mph - N/A   Clear
3:35 PM 53.2 °F - 40.6 °F 62% 30.06 in 10.0 mi NW 5.8 mph - N/A   Clear
3:55 PM 52.7 °F - 40.8 °F 64% 30.06 in 10.0 mi NW 5.8 mph - N/A   Clear
4:15 PM 52.7 °F - 41.0 °F 64% 30.07 in 10.0 mi NNW 4.6 mph - N/A   Clear
4:35 PM 52.3 °F - 42.1 °F 68% 30.07 in 10.0 mi NW 6.9 mph - N/A   Clear
4:55 PM 51.8 °F - 42.1 °F 69% 30.07 in 10.0 mi NNW 6.9 mph - N/A   Clear
5:15 PM 51.1 °F - 42.3 °F 72% 30.07 in 10.0 mi North 6.9 mph - N/A   Clear
5:35 PM 50.2 °F - 42.3 °F 74% 30.08 in 10.0 mi North 6.9 mph - N/A   Clear
5:55 PM 49.3 °F - 42.6 °F 78% 30.08 in 10.0 mi North 6.9 mph - N/A   Clear
6:15 PM 47.8 °F - 42.3 °F 81% 30.08 in 10.0 mi North 6.9 mph - N/A   Clear
6:55 PM 46.0 °F 43.9 °F 41.2 °F 83% 30.08 in 10.0 mi NNE 4.6 mph - N/A   Clear
7:15 PM 45.1 °F 42.8 °F 40.8 °F 85% 30.07 in 10.0 mi NNE 4.6 mph - N/A   Clear
7:35 PM 44.6 °F 40.7 °F 41.0 °F 87% 30.06 in 10.0 mi North 6.9 mph - N/A   Clear
7:55 PM 43.9 °F 39.3 °F 40.6 °F 88% 30.06 in 7.0 mi North 8.1 mph - N/A   Clear
8:15 PM 42.6 °F 38.4 °F 39.7 °F 90% 30.08 in 5.0 mi North 6.9 mph - N/A   Clear
8:35 PM 42.1 °F 36.1 °F 39.6 °F 91% 30.08 in 4.0 mi NNE 10.4 mph - N/A   Clear
8:55 PM 41.5 °F 37.1 °F 39.0 °F 91% 30.08 in 4.0 mi NNE 6.9 mph - N/A   Clear
9:15 PM 41.0 °F 37.1 °F 38.5 °F 91% 30.08 in 4.0 mi NNE 5.8 mph - N/A   Clear
9:35 PM 40.6 °F 37.5 °F 38.3 °F 91% 30.10 in 4.0 mi NNE 4.6 mph - N/A   Clear
9:55 PM 40.1 °F 36.9 °F 37.6 °F 91% 30.10 in 4.0 mi North 4.6 mph - N/A   Clear
10:15 PM 39.7 °F 36.5 °F 37.6 °F 92% 30.11 in 4.0 mi North 4.6 mph - N/A   Clear
10:35 PM 39.2 °F 35.9 °F 37.0 °F 92% 30.11 in 3.0 mi NNE 4.6 mph - N/A   Clear
10:55 PM 38.7 °F 36.3 °F 36.7 °F 93% 30.12 in 4.0 mi North 3.5 mph - N/A   Clear
11:15 PM 38.3 °F 35.9 °F 36.5 °F 93% 30.12 in 4.0 mi North 3.5 mph - N/A   Clear
11:35 PM 37.8 °F 34.2 °F 36.0 °F 93% 30.13 in 3.0 mi North 4.6 mph - N/A   Clear
11:55 PM 37.8 °F - 36.0 °F 93% 30.12 in 4.0 mi Calm Calm - N/A   Clear